ONEWEB-0119 (47265 NORAD) Tracking and Keplerian Element Data
This shows tracking and keplerian element data for the satellite.
Feedback or suggestion? Click here.
Element | Value |
Catalog | 47265 |
Name | ONEWEB-0119 |
Epoch Orbit | 177 |
Epoch Day | 15.91667824 |
Epoch Year | 2021 |
RAAN | 29.6212 |
Inclination | 87.4223 |
Eccentricity | 0.0012326 |
Argument of Perigee | 158.2894 |
Mean Anonmoly | 298.0309 |
Mean Motion | 15.19750045 |
Decay Rate | -0.01356535 |
L1 | 1 47265U 20100H 21015.91667824 -.01356535 00000-0 -69713-1 0 9996 |
L2 | 2 47265 87.4223 29.6212 0012326 158.2894 298.0309 15.19750045 1778 |
Live tracking and technical data element details for ONEWEB-0119 (NORAD 47265). ONEWEB-0119 can be tracked NOW for your location showing map with azimuth and elevation plus other details from your city location.
Track the satellite on the map from your city or location and see movement details for azimuth, elevation, latitude, longitude, range, height, and movement on the map or in text.
IsCatalogInMostPopularTable: catalog: 47265, numindb: 9
Update: records affected: 1
GetName: 47265 ONEWEB-0119
Hit Count: updated at: Sun, 17 Jan 2021 08:51:57 GMT